Location: Newark
(54.4333°N, 18.5500°E)
Time: 13:03:00
(UTC+00:00)

Envisat - Pass Details

Date: 14 December 2019
Orbit: 764 x 766 km, 98.1° (Epoch: 28 January)

Event Time Altitude Azimuth Distance (km) Brightness Sun altitude
Rises 15:10:57 0° 128° (SE) 3,229 6.0 -6.7°
Reaches altitude 10° 15:13:30 10° 117° (ESE) 2,307 5.2 -7.1°
Maximum altitude 15:17:50 29° 59° (ENE) 1,382 3.8 -7.6°
Drops below altitude 10° 15:22:11 10° 1° (N) 2,319 5.2 -8.1°
Sets 15:24:44 0° 350° (N) 3,250 6.1 -8.5°
